H1 CPF 2 NER 2024 1 20 9 020 01 glonass134 H2 1407501 9134 40315 2024 1 20 0 0 0 2024 1 23 23 45 0 900 1 1 0 0 0 1 H9 10 0 60329 0.00000 0 -12253512.376 6446795.530 21453369.484 10 0 60329 900.00000 0 -11752242.886 3798268.234 22341608.688 10 0 60329 1800.00000 0 -11429017.095 1038215.657 22796992.376 10 0 60329 2700.00000 0 -11298891.107 -1767312.854 22810415.701 10 0 60329 3600.00000 0 -11365187.570 -4550302.316 22381315.574 10 0 60329 4500.00000 0 -11619351.676 -7243345.157 21517704.899 10 0 60329 5400.00000 0 -12041323.536 -9782196.879 20236042.341 10 0 60329 6300.00000 0 -12600413.423 -12108209.069 18560938.080 10 0 60329 7200.00000 0 -13256645.137 -14170538.706 16524699.142 10 0 60329 8100.00000 0 -13962512.730 -15928041.288 14166721.070 10 0 60329 9000.00000 0 -14665077.771 -17350767.815 11532735.962 10 0 60329 9900.00000 0 -15308319.186 -18421001.768 8673930.244 10 0 60329 10800.00000 0 -15835636.104 -19133791.319 5645948.640 10 0 60329 11700.00000 0 -16192396.809 -19496953.370 2507803.757 10 0 60329 12600.00000 0 -16328424.104 -19530548.559 -679286.747 10 0 60329 13500.00000 0 -16200309.548 -19265849.318 -3853111.367 10 0 60329 14400.00000 0 -15773455.984 -18743845.180 -6951698.867 10 0 60329 15300.00000 0 -15023759.266 -18013349.762 -9914549.010 10 0 60329 16200.00000 0 -13938855.723 -17128791.328 -12683833.641 10 0 60329 17100.00000 0 -12518880.755 -16147782.572 -15205542.559 10 0 60329 18000.00000 0 -10776705.304 -15128574.734 -17430550.020 10 0 60329 18900.00000 0 -8737639.680 -14127505.822 -19315579.804 10 0 60329 19800.00000 0 -6438617.238 -13196552.501 -20824049.379 10 0 60329 20700.00000 0 -3926892.750 -12381090.130 -21926776.688 10 0 60329 21600.00000 0 -1258310.897 -11717955.801 -22602536.396 10 0 60329 22500.00000 0 1504781.782 -11233895.602 -22838455.906 10 0 60329 23400.00000 0 4295893.426 -10944460.340 -22630244.928 10 0 60329 24300.00000 0 7046913.161 -10853394.463 -21982255.921 10 0 60329 25200.00000 0 9690702.014 -10952541.703 -20907376.019 10 0 60329 26100.00000 0 12163641.160 -11222269.100 -19426754.327 10 0 60329 27000.00000 0 14408032.757 -11632389.255 -17569371.441 10 0 60329 27900.00000 0 16374255.291 -12143540.057 -15371460.824 10 0 60329 28800.00000 0 18022586.006 -12708962.222 -12875794.243 10 0 60329 29700.00000 0 19324617.135 -13276598.849 -10130845.732 10 0 60329 30600.00000 0 20264209.663 -13791428.160 -7189850.484 10 0 60329 31500.00000 0 20837947.510 -14197931.356 -4109776.886 10 0 60329 32400.00000 0 21055075.617 -14442592.229 -950231.142 10 0 60329 33300.00000 0 20936926.556 -14476324.244 2227684.974 10 0 60329 34200.00000 0 20515861.122 -14256723.953 5362542.049 10 0 60329 35100.00000 0 19833768.136 -13750056.979 8393755.150 10 0 60329 36000.00000 0 18940186.535 -12932893.841 11262738.760 10 0 60329 36900.00000 0 17890128.033 -11793327.259 13914023.505 10 0 60329 37800.00000 0 16741690.788 -10331719.695 16296314.460 10 0 60329 38700.00000 0 15553562.797 -8560948.916 18363471.906 10 0 60329 39600.00000 0 14382518.290 -6506139.841 20075396.690 10 0 60329 40500.00000 0 13281010.641 -4203891.669 21398803.961 10 0 60329 41400.00000 0 12294961.466 -1701029.891 22307870.914 10 0 60329 42300.00000 0 11461837.819 947067.824 22784746.054 10 0 60329 43200.00000 0 10809097.759 3678505.332 22819909.818 10 0 60329 44100.00000 0 10353069.801 6427179.750 22412378.636 10 0 60329 45000.00000 0 10098314.113 9125277.765 21569747.169 10 0 60329 45900.00000 0 10037493.672 11705854.842 20308066.096 10 0 60329 46800.00000 0 10151762.449 14105391.460 18651555.824 10 0 60329 47700.00000 0 10411656.121 16266220.568 16632159.495 10 0 60329 48600.00000 0 10778449.472 18138724.934 14288941.933 10 0 60329 49500.00000 0 11205924.533 19683211.911 11667344.404 10 0 60329 50400.00000 0 11642475.529 20871385.902 8818308.378 10 0 60329 51300.00000 0 12033461.650 21687355.413 5797284.641 10 0 60329 52200.00000 0 12323707.287 22128130.982 2663147.007 10 0 60329 53100.00000 0 12460042.332 22203591.919 -522967.477 10 0 60329 54000.00000 0 12393772.754 21935922.696 -3698867.908 10 0 60329 54900.00000 0 12082974.222 21358542.794 -6802543.082 10 0 60329 55800.00000 0 11494508.896 20514575.989 -9773392.952 10 0 60329 56700.00000 0 10605677.436 19454925.115 -12553431.722 10 0 60329 57600.00000 0 9405434.115 18236035.545 -15088436.987 10 0 60329 58500.00000 0 7895112.026 16917444.045 -17329020.647 10 0 60329 59400.00000 0 6088626.787 15559218.631 -19231599.430 10 0 60329 60300.00000 0 4012149.745 14219399.344 -20759245.420 10 0 60329 61200.00000 0 1703264.649 12951549.195 -21882399.923 10 0 60329 62100.00000 0 -790356.220 11802519.082 -22579437.359 10 0 60329 63000.00000 0 -3412700.213 10810520.603 -22837069.306 10 0 60329 63900.00000 0 -6101512.795 10003586.844 -22650582.304 10 0 60329 64800.00000 0 -8790658.150 9398484.159 -22023906.573 10 0 60329 65700.00000 0 -11412643.231 9000118.411 -20969516.111 10 0 60329 66600.00000 0 -13901200.328 8801458.039 -19508163.911 10 0 60329 67500.00000 0 -16193821.484 8783974.505 -17668459.009 10 0 60329 68400.00000 0 -18234140.609 8918579.064 -15486294.876 10 0 60329 69300.00000 0 -19974065.988 9167014.281 -13004141.223 10 0 60329 70200.00000 0 -21375576.593 9483640.088 -10270213.587 10 0 60329 71100.00000 0 -22412109.810 9817538.135 -7337536.998 10 0 60329 72000.00000 0 -23069485.167 10114845.351 -4262921.837 10 0 60329 72900.00000 0 -23346327.856 10321218.561 -1105871.315 10 0 60329 73800.00000 0 -23253976.390 10384326.884 2072558.991 10 0 60329 74700.00000 0 -22815879.804 10256267.782 5210928.316 10 0 60329 75600.00000 0 -22066510.640 9895806.012 8248583.156 10 0 60329 76500.00000 0 -21049839.549 9270342.080 11126813.568 10 0 60329 77400.00000 0 -19817435.183 8357528.028 13789972.280 10 0 60329 78300.00000 0 -18426268.080 7146462.720 16186536.344 10 0 60329 79200.00000 0 -16936309.288 5638416.000 18270092.136 10 0 60329 80100.00000 0 -15408022.688 3847050.159 20000225.788 10 0 60329 81000.00000 0 -13899854.372 1798127.585 21343302.770 10 0 60329 81900.00000 0 -12465822.578 -471285.687 22273122.095 10 0 60329 82800.00000 0 -11153307.799 -2914090.228 22771432.641 10 0 60329 83700.00000 0 -10001134.715 -5474847.505 22828301.230 10 0 60329 84600.00000 0 -9038025.977 -8091830.918 22442324.506 10 0 60329 85500.00000 0 -8281492.878 -10699351.132 21620679.141 10 0 60330 0.00000 0 -7737210.264 -13230261.229 20379007.800 10 0 60330 900.00000 0 -7398902.893 -15618540.548 18741140.306 10 0 60330 1800.00000 0 -7248750.136 -17801847.234 16738655.013 10 0 60330 2700.00000 0 -7258292.494 -19723937.743 14410284.658 10 0 60330 3600.00000 0 -7389803.753 -21336848.330 11801177.954 10 0 60330 4500.00000 0 -7598071.329 -22602747.434 8962029.398 10 0 60330 5400.00000 0 -7832509.809 -23495379.574 5948093.578 10 0 60330 6300.00000 0 -8039517.718 -24001038.446 2818103.058 10 0 60330 7200.00000 0 -8164976.403 -24119026.807 -366888.343 10 0 60330 8100.00000 0 -8156783.215 -23861582.620 -3544713.074 10 0 60330 9000.00000 0 -7967309.133 -23253274.081 -6653322.824 10 0 60330 9900.00000 0 -7555673.986 -22329889.216 -9632020.681 10 0 60330 10800.00000 0 -6889740.151 -21136867.785 -12422666.213 10 0 60330 11700.00000 0 -5947737.849 -19727343.181 -14970827.810 10 0 60330 12600.00000 0 -4719451.336 -18159878.824 -17226857.935 10 0 60330 13500.00000 0 -3206914.453 -16495996.597 -19146869.019 10 0 60330 14400.00000 0 -1424585.492 -14797603.368 -20693590.249 10 0 60330 15300.00000 0 601006.160 -13124425.534 -21837088.441 10 0 60330 16200.00000 0 2832126.325 -11531560.380 -22555339.515 10 0 60330 17100.00000 0 5221178.336 -10067247.307 -22834640.532 10 0 60330 18000.00000 0 7712464.220 -8770951.852 -22669855.732 10 0 60330 18900.00000 0 10244290.435 -7671841.391 -22064493.543 10 0 60330 19800.00000 0 12751329.747 -6787714.312 -21030614.879 10 0 60330 20700.00000 0 15167140.599 -6124424.917 -19588576.281 10 0 60330 21600.00000 0 17426739.397 -5675825.247 -17766614.494 10 0 60330 22500.00000 0 19469119.446 -5424223.327 -15600281.853 10 0 60330 23400.00000 0 21239612.993 -5341335.886 -13131744.437 10 0 60330 24300.00000 0 22691999.752 -5389693.226 -10408957.247 10 0 60330 25200.00000 0 23790276.151 -5524435.412 -7484732.656 10 0 60330 26100.00000 0 24510013.684 -5695423.136 -4415720.143 10 0 60330 27000.00000 0 24839251.857 -5849573.923 -1261316.676 10 0 60330 27900.00000 0 24778890.407 -5933325.395 1917471.835 10 0 60330 28800.00000 0 24342565.939 -5895122.389 5059196.854 10 0 60330 29700.00000 0 23556019.235 -5687823.994 8103139.861 10 0 60330 30600.00000 0 22455980.150 -5270930.025 10990469.907 10 0 60330 31500.00000 0 21088616.624 -4612533.971 13665364.995 10 0 60330 32400.00000 0 19507611.947 -3690920.679 16076077.017 10 0 60330 33300.00000 0 17771949.442 -2495741.512 18175920.957 10 0 60330 34200.00000 0 15943495.626 -1028716.889 19924170.378 10 0 60330 35100.00000 0 14084481.021 696164.705 21286842.816 10 0 60330 36000.00000 0 12254982.084 2652961.732 22237360.473 10 0 60330 36900.00000 0 10510507.848 4804598.159 22757073.547 10 0 60330 37800.00000 0 8899790.796 7104154.513 22835635.795 10 0 60330 38700.00000 0 7462873.503 9496580.842 22471224.187 10 0 60330 39600.00000 0 6229570.786 11920763.349 21670597.093 10 0 60330 40500.00000 0 5218372.026 14311861.330 20448988.163 10 0 60330 41400.00000 0 4435830.373 16603819.304 18829835.934 10 0 60330 42300.00000 0 3876465.594 18731950.913 16844352.266 10 0 60330 43200.00000 0 3523185.845 20635487.378 14530935.939 10 0 60330 44100.00000 0 3348211.755 22259983.754 11934440.946 10 0 60330 45000.00000 0 3314464.726 23559481.224 9105312.394 10 0 60330 45900.00000 0 3377361.122 24498333.279 6098606.016 10 0 60330 46800.00000 0 3486936.160 25052617.238 2972910.314 10 0 60330 47700.00000 0 3590206.563 25211069.900 -210807.051 10 0 60330 48600.00000 0 3633670.156 24975506.327 -3390404.845 10 0 60330 49500.00000 0 3565834.160 24360703.005 -6503800.571 10 0 60330 50400.00000 0 3339662.387 23393749.880 -9490203.250 10 0 60330 51300.00000 0 2914834.830 22112898.864 -12291320.427 10 0 60330 52200.00000 0 2259721.339 20565958.342 -14852513.653 10 0 60330 53100.00000 0 1352983.594 18808302.877 -17123878.074 10 0 60330 54000.00000 0 184735.950 16900583.779 -19061223.690 10 0 60330 54900.00000 0 -1242784.920 14906238.782 -20626938.415 10 0 60330 55800.00000 0 -2915070.220 12888907.198 -21790715.965 10 0 60330 56700.00000 0 -4805715.219 10909860.277 -22530134.915 10 0 60330 57600.00000 0 -6877305.054 9025555.052 -22831078.711 10 0 60330 58500.00000 0 -9082772.154 7285413.914 -22687989.898 10 0 60330 59400.00000 0 -11367167.572 5729921.749 -22103955.365 10 0 60330 60300.00000 0 -13669771.434 4389118.374 -21090622.805 10 0 60330 61200.00000 0 -15926453.894 3281546.842 -19667951.747 10 0 60330 62100.00000 0 -18072188.056 2413698.668 -17863805.669 10 0 60330 63000.00000 0 -20043610.519 1779976.038 -15713394.405 10 0 60330 63900.00000 0 -21781523.694 1363169.510 -13258578.698 10 0 60330 64800.00000 0 -23233236.890 1135428.367 -10547051.052 10 0 60330 65700.00000 0 -24354650.272 1059680.550 -7631409.012 10 0 60330 66600.00000 0 -25111996.555 1091440.826 -4568138.820 10 0 60330 67500.00000 0 -25483169.712 1180930.064 -1416528.751 10 0 60330 68400.00000 0 -25458586.960 1275416.060 1762467.512 10 0 60330 69300.00000 0 -25041549.535 1321677.507 4907396.325 10 0 60330 70200.00000 0 -24248088.235 1268487.921 7957476.890 10 0 60330 71100.00000 0 -23106300.742 1069015.747 10853760.038 10 0 60330 72000.00000 0 -21655208.364 683040.431 13540251.841 10 0 60330 72900.00000 0 -19943179.314 78891.866 15964981.754 10 0 60330 73800.00000 0 -18025983.203 -764968.109 18080995.939 10 0 60330 74700.00000 0 -15964556.386 -1858788.881 19847257.722 10 0 60330 75600.00000 0 -13822569.473 -3200848.440 21229438.731 10 0 60330 76500.00000 0 -11663896.494 -4777275.245 22200585.991 10 0 60330 77400.00000 0 -9550089.350 -6562384.363 22741652.261 10 0 60330 78300.00000 0 -7537961.207 -8519516.652 22841879.035 10 0 60330 79200.00000 0 -5677378.377 -10602349.102 22499023.996 10 0 60330 80100.00000 0 -4009352.149 -12756624.785 21719427.203 10 0 60330 81000.00000 0 -2564510.063 -14922233.216 20517913.030 10 0 60330 81900.00000 0 -1362010.908 -17035556.807 18917527.764 10 0 60330 82800.00000 0 -408949.650 -19031987.208 16949115.788 10 0 60330 83700.00000 0 299721.762 -20848507.368 14650740.538 10 0 60330 84600.00000 0 780753.349 -22426231.401 12066959.622 10 0 60330 85500.00000 0 1061653.500 -23712795.085 9247966.818 10 0 60331 0.00000 0 1179282.185 -24664495.233 6248617.152 10 0 60331 900.00000 0 1178040.520 -25248086.598 3127352.210 10 0 60331 1800.00000 0 1107733.931 -25442157.434 -54948.678 10 0 60331 2700.00000 0 1021201.063 -25238025.483 -3236173.138 10 0 60331 3600.00000 0 971810.764 -24640113.612 -6354207.097 10 0 60331 4500.00000 0 1010935.848 -23665788.809 -9348168.196 10 0 60331 5400.00000 0 1185513.422 -22344670.833 -12159614.657 10 0 60331 6300.00000 0 1535797.846 -20717440.039 -14733703.905 10 0 60331 7200.00000 0 2093403.887 -18834195.629 -17020276.414 10 0 60331 8100.00000 0 2879724.782 -16752434.928 -18974842.253 10 0 60331 9000.00000 0 3904793.387 -14534740.340 -20559450.353 10 0 60331 9900.00000 0 5166635.081 -12246272.829 -21743423.327 10 0 60331 10800.00000 0 6651139.754 -9952178.396 -22503944.067 10 0 60331 11700.00000 0 8332457.748 -7715016.945 -22826483.689 10 0 60331 12600.00000 0 10173902.280 -5592321.273 -22705063.944 10 0 60331 13500.00000 0 12129319.482 -3634387.434 -22142350.733 10 0 60331 14400.00000 0 14144867.725 -1882387.270 -21149578.712 10 0 60331 15300.00000 0 16161130.982 -366879.712 -19746310.250 10 0 60331 16200.00000 0 18115477.482 893219.822 -17960035.061 10 0 60331 17100.00000 0 19944565.138 1891171.997 -15825619.611 10 0 60331 18000.00000 0 21586889.587 2632429.110 -13384618.045 10 0 60331 18900.00000 0 22985269.357 3134136.094 -10684458.678 10 0 60331 19800.00000 0 24089165.726 3424140.664 -7777522.118 10 0 60331 20700.00000 0 24856741.887 3539556.375 -4720128.861 10 0 60331 21600.00000 0 25256577.103 3524940.537 -1571455.639 10 0 60331 22500.00000 0 25268965.827 3430164.503 1607599.200 10 0 60331 23400.00000 0 24886748.907 3308066.186 4755580.150 10 0 60331 24300.00000 0 24115643.165 3211983.330 7811647.424 10 0 60331 25200.00000 0 22974056.167 3193270.708 10716736.856 10 0 60331 26100.00000 0 21492393.866 3298904.907 13414685.663 10 0 60331 27000.00000 0 19711889.499 3569276.663 15853303.730 10 0 60331 27900.00000 0 17683001.393 4036263.007 17985371.015 10 0 60331 28800.00000 0 15463444.920 4721660.121 19769542.954 10 0 60331 29700.00000 0 13115938.635 5636043.140 21171147.304 10 0 60331 30600.00000 0 10705756.285 6778101.869 22162857.644 10 0 60331 31500.00000 0 8298184.526 8134482.041 22725230.658 10 0 60331 32400.00000 0 5955990.160 9680141.162 22847096.564 10 0 60331 33300.00000 0 3737000.759 11379206.917 22525794.314 10 0 60331 34200.00000 0 1691898.310 13186305.260 21767245.750 10 0 60331 35100.00000 0 -137682.704 15048305.709 20585865.596 10 0 60331 36000.00000 0 -1720673.471 16906413.556 19004307.033 10 0 60331 36900.00000 0 -3037641.331 18698523.605 17053045.667 10 0 60331 37800.00000 0 -4081366.959 20361738.271 14769807.892 10 0 60331 38700.00000 0 -4856903.101 21834945.073 12198852.868 10 0 60331 39600.00000 0 -5381111.485 23061344.937 9390120.714 10 0 60331 40500.00000 0 -5681696.813 23990823.985 6398262.614 10 0 60331 41400.00000 0 -5795778.447 24582067.217 3281571.558 10 0 60331 42300.00000 0 -5768060.632 24804322.910 100835.129 10 0 60331 43200.00000 0 -5648679.810 24638741.103 -3081866.120 10 0 60331 44100.00000 0 -5490821.978 24079227.660 -6204389.517 10 0 60331 45000.00000 0 -5348213.351 23132776.238 -9205764.221 10 0 60331 45900.00000 0 -5272593.285 21819263.211 -12027401.909 10 0 60331 46800.00000 0 -5311279.229 20170713.884 -14614258.462 10 0 60331 47700.00000 0 -5504929.367 18230071.381 -16915922.027 10 0 60331 48600.00000 0 -5885599.716 16049521.022 -18887604.855 10 0 60331 49500.00000 0 -6475179.358 13688442.010 -20491018.740 10 0 60331 50400.00000 0 -7284270.756 11211073.947 -21695116.793 10 0 60331 51300.00000 0 -8311562.504 8683997.389 -22476687.548 10 0 60331 52200.00000 0 -9543720.566 6173534.841 -22820790.829 10 0 60331 53100.00000 0 -10955801.636 3743181.284 -22721028.315 10 0 60331 54000.00000 0 -12512170.144 1451171.162 -22179645.264 10 0 60331 54900.00000 0 -14167879.173 -651717.803 -21207463.240 10 0 60331 55800.00000 0 -15870456.335 -2524034.226 -19823646.966 10 0 60331 56700.00000 0 -17562018.945 -4135120.674 -18055311.466 10 0 60331 57600.00000 0 -19181629.603 -5466121.090 -15936978.511 10 0 60331 58500.00000 0 -20667793.596 -6510489.180 -13509893.961 10 0 60331 59400.00000 0 -21960994.198 -7273979.842 -10821219.964 10 0 60331 60300.00000 0 -23006160.731 -7774127.007 -7923117.965 10 0 60331 61200.00000 0 -23754967.370 -8039232.424 -4871740.307 10 0 60331 62100.00000 0 -24167867.936 -8106909.839 -1726149.615 10 0 60331 63000.00000 0 -24215783.018 -8022247.077 1452813.784 10 0 60331 63900.00000 0 -23881370.130 -7835663.954 4603695.317 10 0 60331 64800.00000 0 -23159824.795 -7600556.171 7665599.090 10 0 60331 65700.00000 0 -22059179.623 -7370823.854 10579348.856 10 0 60331 66600.00000 0 -20600088.948 -7198387.936 13288615.879 10 0 60331 67500.00000 0 -18815107.452 -7130797.915 15740993.282 10 0 60331 68400.00000 0 -16747491.769 -7209030.765 17888997.446 10 0 60331 69300.00000 0 -14449573.361 -7465572.922 19690978.264 10 0 60331 70200.00000 0 -11980768.406 -7922865.847 21111921.635 10 0 60331 71100.00000 0 -9405305.185 -8592180.922 22124129.278 10 0 60331 72000.00000 0 -6789761.124 -9472972.039 22707762.970 10 0 60331 72900.00000 0 -4200509.632 -10552734.877 22851242.363 10 0 60331 73800.00000 0 -1701180.893 -11807381.111 22551487.966 10 0 60331 74700.00000 0 649759.262 -13202114.639 21814003.299 10 0 60331 75600.00000 0 2801212.612 -14692775.995 20652792.959 10 0 60331 76500.00000 0 4711342.526 -16227601.386 19090116.220 10 0 60331 77400.00000 0 6349079.439 -17749324.948 17156078.788 10 0 60331 78300.00000 0 7695174.292 -19197537.776 14888068.580 10 0 60331 79200.00000 0 8742754.955 -20511205.589 12330044.587 10 0 60331 80100.00000 0 9497361.302 -21631239.245 9531691.252 10 0 60331 81000.00000 0 9976456.710 -22503009.118 6547453.922 10 0 60331 81900.00000 0 10208436.156 -23078695.857 3435473.971 10 0 60331 82800.00000 0 10231172.924 -23319376.283 256444.849 10 0 60331 83700.00000 0 10090166.124 -23196754.038 -2927587.448 10 0 60331 84600.00000 0 9836368.876 -22694459.557 -6054454.435 10 0 60331 85500.00000 0 9523791.135 -21808862.392 -9063099.557 10 0 60332 0.00000 0 9206981.159 -20549360.176 -11894790.427 10 0 60332 900.00000 0 8938494.764 -18938130.416 -14494284.518 10 0 60332 1800.00000 0 8766462.520 -17009357.133 -16810919.881 10 0 60332 2700.00000 0 8732359.491 -14807963.201 -18799613.233 10 0 60332 3600.00000 0 8869073.959 -12387904.191 -20421741.269 10 0 60332 4500.00000 0 9199357.600 -9810096.068 -21645889.316 10 0 60332 5400.00000 0 9734722.844 -7140064.970 -22448452.911 10 0 60332 6300.00000 0 10474833.548 -4445418.466 -22814081.574 10 0 60332 7200.00000 0 11407413.702 -1793244.616 -22735957.517 10 0 60332 8100.00000 0 12508676.715 752452.623 -22215905.595 10 0 60332 9000.00000 0 13744255.756 3133175.484 -21264334.190 10 0 60332 9900.00000 0 15070594.606 5298112.448 -19900009.965 10 0 60332 10800.00000 0 16436739.433 7205987.660 -18149672.549 10 0 60332 11700.00000 0 17786455.481 8826505.328 -16047498.003 10 0 60332 12600.00000 0 19060579.455 10141331.951 -13634422.577 10 0 60332 13500.00000 0 20199509.107 11144578.658 -10957340.592 10 0 60332 14400.00000 0 21145726.185 11842766.650 -8068192.352 10 0 60332 15300.00000 0 21846247.916 12254280.071 -5022959.752 10 0 60332 16200.00000 0 22254905.466 12408331.599 -1880588.752 10 0 60332 17100.00000 0 22334355.201 12343485.915 1298141.102 10 0 60332 18000.00000 0 22057739.686 12105804.120 4451779.048 10 0 60332 18900.00000 0 21409929.893 11746687.432 7519375.995 10 0 60332 19800.00000 0 20388297.206 11320510.641 10441646.479 10 0 60332 20700.00000 0 19002983.058 10882144.106 13162098.566 10 0 60332 21600.00000 0 17276654.466 10484467.538 15628111.220 10 0 60332 22500.00000 0 15243754.555 10175979.021 17791939.661 10 0 60332 23400.00000 0 12949277.737 9998598.830 19611630.461 10 0 60332 24300.00000 0 10447118.412 9985759.706 21051829.637 10 0 60332 25200.00000 0 7798059.454 10160863.675 22084468.793 10 0 60332 26100.00000 0 5067481.552 10536170.686 22689316.226 10 0 60332 27000.00000 0 2322886.005 11112166.863 22854382.125 10 0 60332 27900.00000 0 -368668.406 11877440.623 22576169.260 10 0 60332 28800.00000 0 -2943109.876 12809074.130 21859763.089 10 0 60332 29700.00000 0 -5341774.906 13873536.192 20718757.874 10 0 60332 30600.00000 0 -7513606.526 15028041.769 19175018.278 10 0 60332 31500.00000 0 -9417037.861 16222323.388 17258278.943 10 0 60332 32400.00000 0 -11021482.049 17400741.952 15005587.719 10 0 60332 33300.00000 0 -12308365.373 18504649.422 12460601.479 10 0 60332 34200.00000 0 -13271659.301 19474904.317 9672746.748 10 0 60332 35100.00000 0 -13917888.135 20254433.551 6696260.587 10 0 60332 36000.00000 0 -14265611.238 20790731.272 3589130.140 10 0 60332 36900.00000 0 -14344401.429 21038187.256 411952.011 10 0 60332 37800.00000 0 -14193363.069 20960144.110 -2773265.158 10 0 60332 38700.00000 0 -13859253.508 20530593.803 -5904329.888 10 0 60332 39600.00000 0 -13394289.055 19735439.418 -8920102.726 10 0 60332 40500.00000 0 -12853730.529 18573266.802 -11761710.443 10 0 60332 41400.00000 0 -12293353.068 17055592.071 -14373713.699 10 0 60332 42300.00000 0 -11766909.846 15206573.792 -16705203.404 10 0 60332 43200.00000 0 -11323699.273 13062201.876 -18710802.945 10 0 60332 44100.00000 0 -11006340.410 10668997.799 -20351555.865 10 0 60332 45000.00000 0 -10848851.775 8082281.694 -21595681.372 10 0 60332 45900.00000 0 -10875115.096 5364080.076 -22419183.385 10 0 60332 46800.00000 0 -11097788.517 2580762.806 -22806302.176 10 0 60332 47700.00000 0 -11517714.122 -199491.135 -22749801.207 10 0 60332 48600.00000 0 -12123843.255 -2909293.053 -22251085.288 10 0 60332 49500.00000 0 -12893681.043 -5484601.128 -21320149.570 10 0 60332 50400.00000 0 -13794229.608 -7867128.704 -19975362.207 10 0 60332 51300.00000 0 -14783388.619 -10006505.744 -18243086.576 10 0 60332 52200.00000 0 -15811752.998 -11862105.786 -16157151.788 10 0 60332 53100.00000 0 -16824731.301 -13404465.076 -13758182.905 10 0 60332 54000.00000 0 -17764895.419 -14616237.753 -11092804.570 10 0 60332 54900.00000 0 -18574462.998 -15492650.389 -8212733.852 10 0 60332 55800.00000 0 -19197808.895 -16041439.788 -5173779.937 10 0 60332 56700.00000 0 -19583901.129 -16282279.255 -2034769.707 10 0 60332 57600.00000 0 -19688560.177 -16245719.404 1143580.607 10 0 60332 58500.00000 0 -19476447.954 -15971689.329 4299826.708 10 0 60332 59400.00000 0 -18922704.038 -15507621.734 7372969.047 10 0 60332 60300.00000 0 -18014161.262 -14906280.853 10303615.758 10 0 60332 61200.00000 0 -16750089.967 -14223383.848 13035114.538 10 0 60332 62100.00000 0 -15142439.473 -13515114.717 15514632.960 10 0 60332 63000.00000 0 -13215565.684 -12835633.964 17694167.725 10 0 60332 63900.00000 0 -11005454.665 -12234687.432 19531464.489 10 0 60332 64800.00000 0 -8558472.413 -11755413.659 20990831.507 10 0 60332 65700.00000 0 -5929690.357 -11432441.160 22043832.010 10 0 60332 66600.00000 0 -3180853.441 -11290355.332 22669842.175 10 0 60332 67500.00000 0 -378072.445 -11342599.761 22856463.658 10 0 60332 68400.00000 0 2410666.297 -11590859.151 22599782.020 10 0 60332 69300.00000 0 5118072.580 -12024951.385 21904464.793 10 0 60332 70200.00000 0 7680100.296 -12623235.340 20783695.673 10 0 60332 71100.00000 0 10038366.873 -13353519.629 19258944.136 10 0 60332 72000.00000 0 12142343.837 -14174436.300 17359572.833 10 0 60332 72900.00000 0 13951226.960 -15037223.700 15122288.280 10 0 60332 73800.00000 0 15435407.147 -15887844.841 12590443.598 10 0 60332 74700.00000 0 16577479.440 -16669352.691 9813205.412 10 0 60332 75600.00000 0 17372746.652 -17324402.468 6844600.147 10 0 60332 76500.00000 0 17829195.481 -17797803.879 3742458.058 10 0 60332 77400.00000 0 17966945.460 -18039003.717 567275.982 10 0 60332 78300.00000 0 17817193.891 -18004391.564 -2618977.875 10 0 60332 79200.00000 0 17420701.921 -17659328.491 -5754092.190 10 0 60332 80100.00000 0 16825886.967 -16979810.283 -8776847.731 10 0 60332 81000.00000 0 16086604.002 -15953692.521 -11628233.202 10 0 60332 81900.00000 0 15259711.815 -14581423.784 -14252615.790 10 0 60332 82800.00000 0 14402529.585 -12876254.757 -16598841.600 10 0 60332 83700.00000 0 13570293.652 -10863913.794 -18621243.016 10 0 60332 84600.00000 0 12813723.904 -8581762.620 -20280532.427 10 0 60332 85500.00000 0 12176803.951 -6077468.205 -21544564.562 99